Weather History for Palm Springs, CA

Change the Weather History Date:

Friday, March 14, 2014

  Actual Average Record
Temperature  
Mean Temperature 71 °F 66 °F  
Max Temperature 88 °F 78 °F 97 °F (2013)
Min Temperature 53 °F 53 °F 34 °F (1952)
Degree Days  
Heating Degree Days 0 3  
Month to date heating degree days 12 42  
Since 1 July heating degree days 423 820  
Cooling Degree Days 6 3  
Month to date cooling degree days 68 31  
Year to date cooling degree days 176 58  
Growing Degree Days 21 (Base 50)    
Moisture  
Dew Point 29 °F    
Average Humidity 32    
Maximum Humidity 59    
Minimum Humidity 4    
Precipitation  
Precipitation 0.00 in 0.01 in 0.49 in (1941)
Month to date precipitation 0.28 0.48  
Year to date precipitation 0.70 2.51  
Since 1 July precipitation 1.96 5.31  
Snow  
Snow 0.00 in - - ()
Month to date snowfall 0.0  
Year to date snowfall 0.0  
Since 1 July snowfall 0.0  
Snow Depth 0.00 in    
Sea Level Pressure  
Sea Level Pressure 29.98 in    
Wind  
Wind Speed 5 mph (WNW)    
Max Wind Speed 20 mph    
Max Gust Speed 25 mph    
Visibility 10 miles    
Events      
T = Trace of Precipitation, MM = Missing Value Source: NWS Daily Summary

Daily Weather History Graph

Daily Weather History Graph

Search for Another Location

Airport:

Trip Planner

Search our weather history database for the weather conditions in past years. The results will help you decide how hot, cold, wet, or windy it might be!

Date:

Astronomy

Mar. 14, 2014 Rise Set
Actual Time 6:57 AM PDT 6:53 PM PDT
Civil Twilight 6:32 AM PDT 7:18 PM PDT
Nautical Twilight 6:03 AM PDT 7:46 PM PDT
Astronomical Twilight 5:34 AM PDT 8:16 PM PDT
Moon 5:22 PM PDT (3/14) 5:36 AM PDT (3/14)
Length of Visible Light 12h 45m
Length of Day
11h 55m
Waxing Gibbous, 96% of the Moon is Illuminated
Mar 14
Waxing Gibbous
Mar 16
Full
Mar 23
Last Quarter
Mar 30
New
Apr 7
First Quarter

Hourly Weather History & Observations

Time (PDT) Temp. Dew Point Humidity Pressure Visibility Wind Dir Wind Speed Gust Speed Precip Events Conditions
12:53 AM 64.0 °F 33.1 °F 31% 29.93 in 10.0 mi Variable 3.5 mph - N/A   Clear
1:53 AM 64.0 °F 37.9 °F 38% 29.94 in 10.0 mi North 3.5 mph - N/A   Clear
2:53 AM 60.1 °F 39.9 °F 47% 29.93 in 10.0 mi Calm Calm - N/A   Clear
3:53 AM 55.9 °F 41.0 °F 57% 29.92 in 10.0 mi Calm Calm - N/A   Clear
5:53 AM 55.0 °F 41.0 °F 59% 29.95 in 10.0 mi Calm Calm - N/A   Clear
6:53 AM 55.9 °F 39.0 °F 53% 29.97 in 10.0 mi Calm Calm - N/A   Clear
7:53 AM 57.0 °F 39.9 °F 53% 29.99 in 10.0 mi Calm Calm - N/A   Clear
8:53 AM 63.0 °F 36.0 °F 37% 30.02 in 10.0 mi SSW 3.5 mph - N/A   Clear
9:53 AM 70.0 °F 30.9 °F 24% 30.03 in 10.0 mi Calm Calm - N/A   Clear
10:53 AM 75.9 °F 24.1 °F 15% 30.03 in 10.0 mi SSW 3.5 mph - N/A   Clear
11:53 AM 81.0 °F 19.9 °F 10% 30.01 in 10.0 mi Variable 3.5 mph - N/A   Clear
12:53 PM 82.9 °F 17.1 °F 9% 30.00 in 10.0 mi Calm Calm - N/A   Clear
1:53 PM 87.1 °F 5.0 °F 4% 29.98 in 10.0 mi Variable 4.6 mph - N/A   Clear
2:53 PM 87.1 °F 7.0 °F 5% 29.96 in 10.0 mi SW 3.5 mph - N/A   Clear
3:53 PM 87.1 °F 21.0 °F 9% 29.95 in 10.0 mi NNW 15.0 mph - N/A   Clear
4:53 PM 87.1 °F 19.9 °F 8% 29.94 in 10.0 mi NW 13.8 mph - N/A   Clear
5:53 PM 84.9 °F 21.9 °F 10% 29.94 in 10.0 mi NW 10.4 mph - N/A   Clear
6:53 PM 82.0 °F 30.0 °F 15% 29.95 in 10.0 mi NW 13.8 mph - N/A   Clear
7:53 PM 80.1 °F 30.0 °F 16% 29.97 in 10.0 mi NW 15.0 mph - N/A   Clear
8:53 PM 78.1 °F 30.9 °F 18% 30.00 in 10.0 mi NW 16.1 mph - N/A   Clear
9:53 PM 75.0 °F 32.0 °F 21% 30.01 in 10.0 mi WNW 6.9 mph - N/A   Clear
10:53 PM 71.1 °F 36.0 °F 28% 30.03 in 10.0 mi Calm Calm - N/A   Clear
11:53 PM 68.0 °F 36.0 °F 31% 30.03 in 10.0 mi South 3.5 mph - N/A   Clear